Location: Macksville High School
(37.9611°N, 99.9654°W)
Time: 18:59:02
(UTC+00:00)

Cosmos 1763 Rocket - Pass Details

Date: 17 January 2021
Orbit: 732 x 781 km, 74.0° (Epoch: 26 February)

Event Time Altitude Azimuth Distance (km) Brightness Sun altitude
Rises 12:13:56 0° 197° (SSW) 3,158 6.6 -19.4°
Reaches altitude 10° 12:16:15 10° 197° (SSW) 2,246 5.9 -19.0°
Maximum altitude 12:21:20 88° 282° (WNW) 755 3.4 -18.0°
Drops below altitude 10° 12:26:33 10° 18° (NNE) 2,292 6.0 -17.0°
Sets 12:28:57 0° 19° (NNE) 3,229 6.8 -16.5°
